Weather reports worldwide

Advertisment
Kyritz, Germany (10267): temperature & dewpoint: 18.08.2019 07:00:00 - 24.08.2019 07:00:00 (CEST)Kyritz, Germany (10267): temperature 5cm & temperature -5cm: 18.08.2019 07:00:00 - 24.08.2019 07:00:00 (CEST)Kyritz, Germany (10267): temperature -20cm & temperature -100cm: 18.08.2019 07:00:00 - 24.08.2019 07:00:00 (CEST)Kyritz, Germany (10267): wind speed & gusts: 18.08.2019 07:00:00 - 24.08.2019 07:00:00 (CEST)Kyritz, Germany (10267): wind direction: 18.08.2019 07:00:00 - 24.08.2019 07:00:00 (CEST)Kyritz, Germany (10267): reduced air pressure: 18.08.2019 07:00:00 - 24.08.2019 07:00:00 (CEST)Kyritz, Germany (10267): visibility: 18.08.2019 07:00:00 - 24.08.2019 07:00:00 (CEST)Kyritz, Germany (10267): sunshine duration: 18.08.2019 07:00:00 - 24.08.2019 07:00:00 (CEST)Kyritz, Germany (10267): precipitation: 18.08.2019 07:00:00 - 24.08.2019 07:00:00 (CEST)
Date & Time tt [°C] td [°C] tt 5cm [°C] tt -5cm [°C] tt -20cm [°C] tt -100cm [°C] ff [km/h] ff [kn] fx [km/h] fx [kn] dd ppp [hPa] vv [km] sd [min] rr [mm]
24.08.2019 07:00:00 12,9 10,5 11,0 17,6 21,4 18,7 5 3 8 5 NE 1025,3 17 20 0,0
24.08.2019 06:00:00 13,3 11,2 10,3 18,0 21,8 18,7 6 3 8 4 NE 1025,2 21 0 0,0
24.08.2019 05:00:00 12,7 10,7 10,4 18,6 22,3 18,7 6 3 9 5 NNE 1025,2 19 0 0,0
24.08.2019 04:00:00 14,7 11,6 11,3 19,3 22,8 18,6 6 3 10 5 NNE 1025,3 26 0 0,0
24.08.2019 03:00:00 15,8 11,7 13,2 20,1 23,3 18,6 7 4 12 7 NE 1025,3 31 0 0,0
24.08.2019 02:00:00 16,6 11,9 14,6 20,9 23,8 18,6 8 4 15 8 NNE 1025,3 32 0 0,0
24.08.2019 01:00:00 17,5 12,0 16,0 21,7 24,3 18,6 11 6 19 11 NNE 1025,3 35 0 0,0
24.08.2019 00:00:00 18,4 11,9 17,2 22,5 24,9 18,6 15 8 22 12 NNE 1025,3 36 0 0,0
23.08.2019 23:00:00 18,3 11,1 16,9 23,6 25,4 18,6 14 8 21 11 N 1025,2 37 0 0,0
23.08.2019 22:00:00 17,9 11,7 15,0 25,0 26,0 18,6 4 2 6 4 ENE 1024,9 27 0 0,0
23.08.2019 21:00:00 20,7 10,0 17,1 26,9 26,4 18,6 6 3 8 5 SE 1024,8 46 0 0,0
23.08.2019 20:00:00 23,5 11,3 21,0 29,5 26,5 18,6 8 4 12 7 SE 1024,5 51 54 0,0
23.08.2019 19:00:00 27,2 9,1 26,6 31,9 26,4 18,6 8 5 15 8 SE 1024,4 55 60 0,0
23.08.2019 18:00:00 29,1 9,2 29,5 33,7 25,9 18,6 5 3 12 7 WSW 1024,7 59 60 0,0
23.08.2019 17:00:00 28,4 7,8 30,3 34,6 25,2 18,6 4 2 16 8 SSW 1024,9 58 60 0,0
23.08.2019 16:00:00 29,3 7,7 31,7 34,8 24,3 18,6 8 5 18 10 S 1025,2 42 60 0,0
23.08.2019 15:00:00 28,4 8,0 31,8 34,3 23,3 18,6 8 4 19 10 S 1025,5 50 60 0,0
23.08.2019 14:00:00 28,1 7,9 33,0 32,9 22,2 18,6 9 5 17 9 W 1026,0 36 60 0,0
23.08.2019 13:00:00 27,3 7,9 31,9 30,7 21,1 18,6 11 6 21 12 S 1026,4 35 60 0,0
23.08.2019 12:00:00 26,3 10,5 30,4 28,0 20,2 18,6 11 6 19 10 S 1026,8 36 60 0,0
23.08.2019 11:00:00 24,7 11,4 28,3 24,7 19,5 18,6 11 6 17 9 S 1027,0 33 60 0,0
23.08.2019 10:00:00 22,6 13,1 25,9 21,2 19,2 18,5 8 5 13 7 S 1027,0 32 60 0,0
23.08.2019 09:00:00 19,4 12,7 21,4 17,7 19,3 18,5 8 4 13 7 S 1026,9 26 60 0,0
23.08.2019 08:00:00 14,9 11,4 13,7 16,1 19,6 18,5 4 2 8 4 SSE 1027,0 22 60 0,0
23.08.2019 07:00:00 11,9 9,5 9,8 15,8 20,0 18,5 6 3 8 4 ESE 1026,8 21 19 0,0
23.08.2019 06:00:00 10,3 9,3 8,3 16,2 20,5 18,5 7 4 8 5 ESE 1026,5 22 0 0,0
23.08.2019 05:00:00 10,3 8,7 8,6 16,8 20,9 18,5 7 4 8 4 ESE 1026,6 23 0 0,0
23.08.2019 04:00:00 11,1 9,5 9,1 17,5 21,4 18,5 5 3 7 4 ESE 1026,4 27 0 0,0
23.08.2019 03:00:00 12,5 9,5 9,7 18,1 21,9 18,4 5 3 6 4 ESE 1026,3 32 0 0,0
23.08.2019 02:00:00 13,2 10,0 10,2 18,9 22,5 18,4 4 2 9 5 SE 1026,2 30 0 0,0
23.08.2019 01:00:00 12,7 10,4 10,8 19,8 23,0 18,4 8 4 9 5 ESE 1026,3 30 0 0,0
23.08.2019 00:00:00 14,1 10,2 11,5 20,8 23,6 18,4 5 3 9 5 ESE 1026,0 32 0 0,0
22.08.2019 23:00:00 14,4 10,0 12,4 22,0 24,2 18,4 0 0 6 4 N 1025,9 34 0 0,0
22.08.2019 22:00:00 16,9 9,9 13,8 23,4 24,7 18,4 5 3 9 5 S 1025,7 37 0 0,0
22.08.2019 21:00:00 19,2 9,4 15,6 25,4 25,1 18,4 6 3 11 6 SE 1025,3 37 8 0,0
22.08.2019 20:00:00 22,3 9,0 20,1 27,9 25,2 18,5 11 6 16 9 SE 1024,8 49 59 0,0
22.08.2019 19:00:00 25,3 8,5 25,0 30,2 25,0 18,5 10 5 24 13 S 1024,7 48 60 0,0
22.08.2019 18:00:00 26,1 7,7 27,2 32,0 24,6 18,5 9 5 20 11 SE 1025,1 56 60 0,0
22.08.2019 17:00:00 26,8 7,6 29,1 32,9 23,9 18,5 14 7 32 17 S 1025,5 54 60 0,0
22.08.2019 16:00:00 26,7 7,2 29,2 33,2 23,0 18,5 13 7 29 16 SSW 1025,7 35 60 0,0
22.08.2019 15:00:00 26,3 7,3 30,1 32,7 22,0 18,5 13 7 31 17 S 1026,1 32 60 0,0
22.08.2019 14:00:00 25,7 7,6 29,7 31,4 20,8 18,5 17 9 34 19 S 1026,8 31 60 0,0
22.08.2019 13:00:00 25,1 8,4 29,2 29,1 19,8 18,5 12 6 29 16 SW 1027,4 35 58 0,0
22.08.2019 12:00:00 24,2 8,9 28,7 26,6 18,8 18,5 15 8 25 13 SSW 1027,8 37 60 0,0
22.08.2019 11:00:00 22,5 8,4 26,1 23,3 18,1 18,5 16 9 22 12 S 1028,2 46 60 0,0
22.08.2019 10:00:00 20,0 8,8 22,9 19,6 17,8 18,5 9 5 14 7 SSE 1028,4 39 60 0,0
22.08.2019 09:00:00 17,2 9,9 18,6 16,0 17,9 18,5 5 3 10 5 ESE 1028,6 42 60 0,0
22.08.2019 08:00:00 12,9 9,5 11,9 14,1 18,2 18,4 4 2 7 4 E 1028,8 37 60 0,0
22.08.2019 07:00:00 9,6 8,1 7,6 13,7 18,6 18,4 3 2 10 5 ESE 1028,6 31 18 0,0
22.08.2019 06:00:00 8,1 7,6 5,8 14,1 19,0 18,4 4 2 6 3 ENE 1028,4 31 0 0,0
22.08.2019 05:00:00 9,0 8,0 6,7 14,7 19,5 18,4 4 2 6 3 NE 1028,5 35 0 0,0
22.08.2019 04:00:00 9,0 7,8 7,0 15,4 20,0 18,4 6 3 7 4 N 1028,6 26 0 0,0
22.08.2019 03:00:00 9,7 7,8 7,6 16,1 20,5 18,4 3 2 7 4 ENE 1028,7 44 0 0,0
22.08.2019 02:00:00 12,0 9,2 9,5 16,9 21,0 18,4 5 3 9 5 NNE 1028,9 47 0 0,0
22.08.2019 01:00:00 11,7 9,3 9,3 17,7 21,6 18,4 6 3 9 5 ENE 1028,9 48 0 0,0
22.08.2019 00:00:00 10,7 8,6 9,8 18,6 22,1 18,4 5 3 10 5 NE 1028,9 41 0 0,0
21.08.2019 23:00:00 13,1 9,4 10,5 19,7 22,7 18,4 6 3 9 5 N 1028,6 54 0 0,0
21.08.2019 22:00:00 13,4 8,8 11,0 21,1 23,2 18,4 6 3 8 4 NNE 1028,4 51 0 0,0
21.08.2019 21:00:00 16,0 8,7 13,0 23,1 23,6 18,4 1 1 6 4 SSE 1028,1 68 8 0,0
21.08.2019 20:00:00 20,3 6,8 17,8 25,6 23,7 18,4 5 3 13 7 NNW 1027,8 53 55 0,0
21.08.2019 19:00:00 21,9 5,5 22,0 27,9 23,6 18,4 9 5 17 9 N 1027,6 67 60 0,0
21.08.2019 18:00:00 22,8 6,0 23,9 29,2 23,2 18,4 8 5 21 11 W 1027,5 60 60 0,0
21.08.2019 17:00:00 22,8 4,8 25,7 29,5 22,7 18,4 12 7 24 13 NW 1027,4 57 52 0,0
21.08.2019 16:00:00 21,9 5,0 23,5 29,0 22,2 18,4 13 7 31 17 WNW 1027,4 70 33 0,0
21.08.2019 15:00:00 21,4 6,2 23,5 29,9 21,5 18,4 9 5 28 15 NW 1027,5 70 39 0,0
21.08.2019 14:00:00 21,6 6,8 25,2 28,2 20,7 18,5 13 7 29 15 W 1027,7 48 37 0,0
21.08.2019 13:00:00 21,1 7,7 24,8 28,2 19,8 18,5 13 7 27 15 WNW 1027,7 64 47 0,0
21.08.2019 12:00:00 20,0 9,4 25,4 26,0 18,9 18,5 11 6 23 12 NW 1027,8 51 49 0,0
21.08.2019 11:00:00 18,9 9,9 23,9 23,2 18,3 18,5 11 6 27 15 NW 1028,0 36 56 0,0
21.08.2019 10:00:00 18,5 11,8 22,3 19,9 18,0 18,4 10 6 25 13 NW 1028,0 31 60 0,0
21.08.2019 09:00:00 16,6 11,5 19,1 16,8 18,0 18,5 10 5 19 11 WNW 1027,6 32 60 0,0
21.08.2019 08:00:00 14,0 10,8 13,5 15,0 18,3 18,4 11 6 21 11 WNW 1027,2 29 58 0,0
21.08.2019 07:00:00 12,7 10,4 12,0 14,9 18,6 18,4 13 7 19 11 WNW 1026,6 24 2 0,0
21.08.2019 06:00:00 12,6 10,6 11,7 15,1 19,0 18,4 8 4 17 9 WNW 1025,8 25 0 0,0
21.08.2019 05:00:00 11,0 9,6 9,2 15,3 19,4 18,4 7 4 12 7 W 1025,5 24 0 0,0
21.08.2019 04:00:00 10,8 9,3 9,2 16,1 19,8 18,4 8 4 14 7 W 1025,2 32 0 0,0
21.08.2019 03:00:00 12,8 10,1 11,2 17,0 20,2 18,4 6 3 9 5 WNW 1024,7 43 0 0,0
21.08.2019 02:00:00 13,9 10,8 12,4 17,8 20,6 18,5 3 2 12 6 NNE 1024,5 41 0 0,0
21.08.2019 01:00:00 14,2 11,8 13,0 18,5 20,9 18,5 6 3 9 5 WNW 1024,2 44 0 0,0
21.08.2019 00:00:00 15,0 12,2 13,8 19,2 21,3 18,5 4 2 6 3 WSW 1023,7 55 0 0,0
20.08.2019 23:00:00 15,6 12,1 15,1 20,0 21,7 18,5 3 2 4 2 SSW 1023,4 47 0 0,0
20.08.2019 22:00:00 16,8 12,0 15,4 20,9 22,1 18,5 3 2 8 4 NW 1023,2 45 0 0,0
20.08.2019 21:00:00 17,8 10,6 16,6 22,0 22,4 18,5 0 0 11 6 N 1022,7 57 0 0,0
20.08.2019 20:00:00 20,4 7,8 19,4 23,3 22,7 18,5 6 3 18 10 NNW 1022,1 48 0 0,0
20.08.2019 19:00:00 21,3 7,7 21,1 24,9 22,7 18,5 11 6 23 13 NW 1022,0 64 0 0,0
20.08.2019 18:00:00 22,5 7,7 23,0 26,5 22,6 18,5 11 6 23 12 WNW 1021,6 70 0 0,0
20.08.2019 17:00:00 23,2 6,9 24,5 28,1 22,3 18,6 14 8 27 14 W 1021,5 69 1 0,0
20.08.2019 16:00:00 23,1 8,6 24,9 29,1 21,6 18,6 16 8 27 14 WSW 1021,4 63 15 0,0
20.08.2019 15:00:00 23,8 10,0 26,3 30,3 20,7 18,6 12 7 29 16 SSW 1021,6 55 51 0,0
20.08.2019 14:00:00 24,1 11,1 27,6 29,4 19,7 18,6 16 8 27 15 SSW 1021,4 46 60 0,0
20.08.2019 13:00:00 23,9 10,9 27,6 27,6 18,6 18,6 11 6 28 15 SSW 1021,5 35 60 0,0
20.08.2019 12:00:00 22,9 10,1 26,7 24,9 17,7 18,6 9 5 16 9 SW 1021,6 46 57 0,0
20.08.2019 11:00:00 21,5 11,3 25,0 22,1 17,0 18,6 6 3 12 7 S 1021,8 43 60 0,0
20.08.2019 10:00:00 19,2 11,8 21,7 18,5 16,6 18,6 5 3 8 5 SSE 1021,6 32 45 0,0
20.08.2019 09:00:00 16,4 11,2 18,8 15,7 16,5 18,7 4 2 6 4 WSW 1021,4 37 43 0,0
20.08.2019 08:00:00 12,9 9,9 12,1 13,4 16,6 18,7 4 2 9 5 SSW 1021,1 30 28 0,0
20.08.2019 07:00:00 10,5 9,1 10,1 12,7 16,9 18,7 5 3 13 7 S 1020,9 26 8 0,0
20.08.2019 06:00:00 9,2 8,3 8,0 12,6 17,2 18,7 3 2 5 3 S 1020,4 23 0 0,0
20.08.2019 05:00:00 9,3 8,5 7,8 12,8 17,6 18,7 2 1 4 2 E 1019,9 29 0 0,0
20.08.2019 04:00:00 10,0 8,8 8,0 13,2 18,0 18,7 3 2 6 4 SSE 1020,0 32 0 0,0
20.08.2019 03:00:00 10,3 9,1 8,2 13,7 18,4 18,7 6 3 8 4 SSW 1019,8 37 0 0,0
20.08.2019 02:00:00 10,6 9,1 8,5 14,3 18,9 18,7 5 3 6 3 S 1019,5 34 0 0,0
20.08.2019 01:00:00 11,4 9,9 9,2 15,0 19,3 18,7 5 3 6 3 S 1019,2 34 0 0,0
20.08.2019 00:00:00 11,9 10,2 9,6 15,7 19,8 18,7 4 2 5 3 S 1018,8 37 0 0,0
19.08.2019 23:00:00 13,1 10,2 10,6 16,6 20,2 18,7 4 2 6 4 S 1018,4 44 0 0,0
19.08.2019 22:00:00 14,9 10,2 11,6 17,6 20,6 18,7 3 2 9 5 S 1018,3 52 0 0,0
19.08.2019 21:00:00 17,3 9,6 13,2 18,9 21,0 18,7 8 4 15 8 SW 1017,9 51 0 0,0
19.08.2019 20:00:00 20,1 8,9 18,2 20,5 21,2 18,7 11 6 18 10 WSW 1017,2 61 37 0,0
19.08.2019 19:00:00 22,0 8,6 21,4 21,9 21,3 18,7 12 6 22 12 W 1016,8 70 28 0,0
19.08.2019 18:00:00 22,1 9,3 22,0 22,7 21,3 18,8 15 8 34 18 WSW 1016,7 66 23 0,0
19.08.2019 17:00:00 21,6 9,4 21,9 23,1 21,2 18,8 21 11 30 16 WSW 1016,5 67 15 0,0
19.08.2019 16:00:00 22,1 10,2 23,0 23,5 21,0 18,8 18 10 37 20 W 1016,2 60 26 0,0
19.08.2019 15:00:00 21,9 10,0 23,9 24,0 20,6 18,8 15 8 41 22 WSW 1015,9 63 34 0,0
19.08.2019 14:00:00 22,3 10,0 24,8 24,8 20,0 18,8 18 10 39 21 W 1015,2 59 50 0,0
19.08.2019 13:00:00 21,9 10,1 24,9 24,2 19,5 18,8 22 12 39 21 SW 1014,8 31 58 0,0
19.08.2019 12:00:00 20,8 11,0 23,4 21,6 19,1 18,8 16 9 36 20 W 1014,7 51 32 0,0
19.08.2019 11:00:00 19,5 13,1 21,2 21,2 18,7 18,8 16 9 32 18 WSW 1014,2 36 44 0,0
19.08.2019 10:00:00 18,2 15,0 20,7 19,2 18,5 18,8 16 9 24 13 WSW 1013,9 16 49 0,0
19.08.2019 09:00:00 15,6 14,5 15,6 16,9 18,6 18,8 11 6 16 9 SW 1013,7 9 2 0,0
19.08.2019 08:00:00 14,9 14,3 14,8 16,4 18,7 18,8 7 4 13 7 S 1013,3 9 0 0,0
19.08.2019 07:00:00 13,8 13,4 13,7 15,9 19,0 18,8 5 3 11 6 SSW 1013,3 8 0 0,0
19.08.2019 06:00:00 13,5 13,1 12,7 16,0 19,3 18,8 4 2 7 4 S 1012,7 7 0 0,0
19.08.2019 05:00:00 13,9 13,4 13,0 16,4 19,6 18,8 3 2 11 6 SSW 1012,4 11 0 0,0
19.08.2019 04:00:00 14,1 13,6 13,7 16,6 19,9 18,8 9 5 11 6 SSW 1011,8 13 0 0,0
19.08.2019 03:00:00 14,4 13,9 13,3 17,1 20,3 18,8 5 3 11 6 SSW 1011,3 14 0 0,0
19.08.2019 02:00:00 14,5 13,8 13,9 17,5 20,7 18,8 9 5 14 8 SW 1010,7 18 0 0,0
19.08.2019 01:00:00 16,0 14,7 15,1 18,4 21,0 18,8 10 6 19 11 W 1010,2 35 0 0,0
19.08.2019 00:00:00 16,7 15,0 15,8 19,1 21,4 18,8 11 6 22 12 W 1009,1 44 0 0,0
18.08.2019 23:00:00 17,9 16,0 17,9 19,7 21,7 18,8 11 6 23 13 W 1008,7 56 0 0,0
18.08.2019 22:00:00 18,4 16,5 17,9 20,2 22,1 18,8 16 9 33 18 W 1007,8 65 0 0,0
18.08.2019 21:00:00 19,0 17,9 18,4 21,1 22,4 18,8 13 7 21 12 WSW 1006,6 42 0 0,0
18.08.2019 20:00:00 19,7 18,6 19,4 22,3 22,6 18,8 17 9 24 13 SW 1006,0 49 14 0,0
18.08.2019 19:00:00 19,9 18,7 20,1 23,2 22,8 18,8 11 6 23 12 SW 1005,7 57 10 0,1
18.08.2019 18:00:00 19,0 18,6 19,3 23,0 23,0 18,8 5 3 33 18 S 1004,9 31 0 8,1
18.08.2019 17:00:00 22,2 16,8 22,5 25,6 23,0 18,8 3 2 32 17 S 1004,8 70 0 0,1
18.08.2019 16:00:00 22,7 16,4 22,3 27,2 22,6 18,8 22 12 37 20 SSW 1005,3 15 0 0,0
18.08.2019 15:00:00 24,9 15,9 27,6 28,6 22,0 18,8 22 12 36 20 S 1005,2 66 24 0,0
18.08.2019 14:00:00 24,2 16,7 27,9 27,2 21,4 18,8 16 9 25 14 SSW 1005,6 63 11 0,0
18.08.2019 13:00:00 23,1 16,8 26,5 25,1 21,1 18,8 11 6 21 11 S 1005,8 55 10 0,0
18.08.2019 12:00:00 21,4 16,5 23,6 24,1 20,7 18,8 13 7 22 12 S 1006,4 61 0 0,0
18.08.2019 11:00:00 21,4 16,2 23,7 23,5 20,4 18,8 13 7 21 11 SSW 1006,3 57 5 0,0
18.08.2019 10:00:00 20,1 15,9 22,0 21,3 20,3 18,8 13 7 22 12 SSW 1006,5 62 0 0,0
18.08.2019 09:00:00 19,2 15,7 19,3 20,4 20,3 18,8 13 7 18 10 SSW 1006,8 31 0 0,0
18.08.2019 08:00:00 18,6 15,3 19,0 19,8 20,4 18,8 9 5 18 10 SSW 1007,2 63 0 0,0
18.08.2019 07:00:00 17,6 14,9 17,2 19,5 20,6 18,8 9 5 17 9 S 1007,2 44 0 0,0

tt = temperature
td = dewpoint
tt 5cm = temperature 5cm
tt -5cm = temperature -5cm
tt -20cm = temperature -20cm
tt -100cm = temperature -100cm
ff = wind speed
fx = gusts
dd = wind direction
ppp = reduced air pressure
vv = visibility
sd = sunshine duration
rr = precipitation

Next stations